Вернуться в каталог

NOAA 16 DEB

АктивенPO
NORAD 41267·DEBRIS·🇺🇸 United States

Запущен Sep 21, 2000 с Vandenberg Space Force Base

Loading…

Ближайшие Пролёты (ближайшие 24 часа)

TLE

СвежийSource: Space-Track

Эпоха: Sep 13, 2026, 10:00 UTC

1 41267U 00055FT  26256.41729845  .00062464  00000-0  32016-2 0  9997
2 41267  98.7934 111.2437 0011529 348.2318  11.8640 15.16262084564378

Отслеживайте NOAA 16 DEB в реальном времени с AllMySat

Download on the App Store